GFSNE_850_dewp_255.txt.gz
Dewpoint
8 6 6 5 7 6 6 3 0 7 7 4 1 -2 -2 -2 -3 -2 -0 -1 -1 -1 -1 -2 -3 -4 -5 -7 -8 -9 -9 -9 -9 -9 -8 -8 -8 -8
10 9 8 8 7 7 6 6 5 2 -1 -2 -3 -4 -3 -3 -2 -2 0 2 3 3 1 0 0 -0 -2 -2 -3 -4 -7 -8 -7 -7 -6 -6 -5 -6
11 10 9 8 7 6 7 7 7 5 3 1 -0 -2 -2 -0 1 2 4 5 5 5 5 5 4 3 2 1 1 1 -0 -2 -5 -4 -3 -4 -3 -3
12 11 11 9 9 8 6 8 7 7 5 4 3 1 0 1 3 4 6 6 6 5 5 6 6 6 6 5 4 4 4 3 2 0 -1 -0 -1 -1
12 12 12 11 10 10 7 8 8 7 7 7 5 4 4 3 5 6 7 7 7 6 6 6 7 7 8 8 6 5 5 4 5 5 4 3 2 2
10 11 12 12 11 11 10 9 8 9 8 8 7 6 6 5 6 7 6 7 7 7 7 7 7 8 8 8 8 7 6 7 7 6 7 6 5 5
8 9 9 11 12 12 11 11 10 10 9 8 8 8 7 7 7 6 5 4 6 7 7 8 8 8 8 7 7 7 7 7 7 7 7 7 7 7
8 9 9 8 11 11 12 12 11 10 10 9 8 8 8 7 7 7 6 6 7 7 7 8 8 7 8 8 7 6 5 5 6 6 7 7 6 8
7 8 8 8 7 10 11 11 11 11 11 10 9 9 8 8 8 7 7 6 6 4 8 7 7 8 8 8 8 7 7 6 6 8 8 9 8 8
4 6 7 8 8 8 10 10 11 11 11 11 11 11 11 11 10 10 10 9 6 6 8 8 8 8 9 9 8 8 8 7 7 8 9 9 9 8
1 2 3 3 6 8 8 7 10 11 11 12 11 12 12 12 11 11 11 10 9 9 9 9 9 9 9 9 9 9 8 8 8 8 9 10 9 9
-1 0 1 2 2 4 6 8 8 9 11 11 11 11 11 11 11 11 11 10 10 9 9 9 9 9 9 9 9 9 9 9 9 9 10 10 10 9
-6 -3 0 1 1 2 2 5 5 8 9 10 11 10 11 11 11 11 11 11 10 10 10 10 10 10 10 10 10 10 10 10 10 10 10 11 10 10
-6 -7 -7 -1 0 1 1 2 1 3 6 9 10 10 10 10 11 11 11 11 11 11 10 10 10 11 10 10 10 10 10 10 10 10 10 11 11 10
-6 -6 -6 -7 -5 -1 0 1 1 2 4 5 7 8 9 10 10 10 10 11 10 10 11 10 10 10 10 10 10 10 10 10 10 10 10 10 10 10
-7 -6 -6 -6 -7 -6 -3 0 1 1 2 2 3 4 6 7 8 10 9 10 10 10 10 10 10 10 10 10 10 10 10 10 10 10 10 10 10 9
-6 -5 -5 -5 -6 -6 -5 -4 -1 0 0 1 1 1 1 3 4 5 7 8 9 9 9 9 9 9 9 9 9 9 10 9 9 10 9 9 9 9
-6 -6 -5 -5 -5 -5 -5 -5 -5 -4 -1 0 0 0 1 0 1 1 2 5 5 7 7 7 7 7 8 8 8 9 8 9 9 9 9 9 8 8
-6 -6 -6 -6 -5 -5 -5 -5 -5 -5 -5 -4 -2 -0 0 0 -0 0 0 0 -0 2 4 5 5 6 6 6 7 7 7 7 8 8 7 8 8 7
-7 -7 -6 -6 -6 -5 -5 -5 -5 -5 -4 -4 -4 -4 -4 -1 -0 -0 -0 0 -0 -1 -1 -0 3 4 4 5 5 5 6 6 6 6 7 7 7 6
-7 -7 -7 -6 -6 -6 -6 -5 -5 -5 -5 -5 -5 -4 -4 -4 -4 -3 -1 -0 0 0 0 -1 -1 1 2 2 2 3 4 5 5 5 5 6 6 5
-7 -7 -7 -7 -6 -6 -6 -6 -5 -5 -5 -5 -5 -5 -5 -5 -4 -4 -4 -4 -3 -1 0 0 1 -0 -1 -1 0 1 2 3 4 5 5 5 4 4
-7 -7 -7 -7 -6 -6 -6 -6 -6 -5 -5 -5 -5 -5 -5 -5 -5 -4 -4 -3 -3 -2 -2 -2 -1 0 0 0 0 0 1 1 1 2 3 4 4 3

GFSNE_850_dewp_258.txt.gz
Dewpoint
11 8 5 5 5 5 4 1 1 7 6 3 0 -4 -3 -3 -4 -4 -5 -5 -4 -3 -2 -2 -6 -7 -6 -8 -10 -10 -10 -10 -10 -10 -10 -10 -10 -9
12 9 8 7 6 6 4 3 4 2 1 -2 -3 -3 -2 -3 -3 -2 -2 -1 -1 -0 0 -0 -0 -1 -2 -3 -3 -3 -7 -8 -8 -8 -8 -8 -8 -7
11 11 10 9 8 6 6 6 5 5 3 1 0 -0 1 0 -0 -1 -0 1 -1 0 -0 1 2 2 2 2 1 -0 -0 -0 -1 -4 -7 -6 -6 -5
10 11 11 10 10 9 7 7 6 5 5 4 2 1 0 -0 -1 -0 -1 -1 -0 1 4 5 5 5 5 5 3 3 3 3 4 3 1 -2 -4 -3
8 11 11 11 11 10 9 7 8 5 6 6 4 3 3 2 1 -0 0 2 2 4 5 6 6 6 7 7 7 6 6 5 4 5 5 5 3 1
7 10 11 11 11 11 10 9 8 8 6 7 7 5 4 4 4 3 1 2 3 5 6 6 6 6 7 7 7 7 7 7 6 5 6 6 6 6
9 9 9 10 11 11 10 10 10 9 8 7 8 8 7 7 6 5 4 2 4 5 5 5 5 6 7 7 7 7 7 7 8 7 7 7 7 7
9 9 8 8 9 11 11 11 11 10 9 8 8 8 8 7 6 6 6 5 6 5 5 3 4 3 7 7 8 8 8 8 7 7 6 7 7 7
8 8 8 8 8 8 10 11 11 11 10 9 9 9 8 7 6 7 7 7 6 6 6 6 5 4 4 7 8 7 7 8 8 7 6 6 6 6
5 3 5 7 7 8 7 8 10 11 11 11 11 11 11 10 9 8 8 7 7 7 7 7 6 5 3 6 8 8 7 8 8 8 7 7 6 7
1 1 1 3 5 7 8 8 8 10 10 11 11 10 10 11 11 10 9 9 9 10 9 9 9 9 7 6 7 8 8 9 9 8 8 8 7 8
-3 -0 1 1 2 3 5 7 8 9 9 10 10 11 11 11 11 11 11 11 11 11 10 10 10 10 8 8 8 8 9 9 9 9 9 9 8 8
-8 -7 -4 0 1 2 2 4 5 7 8 8 9 10 10 10 11 11 11 11 11 11 10 10 10 10 9 9 9 8 9 9 9 9 9 9 9 9
-7 -7 -7 -7 -0 1 1 1 2 3 5 7 8 9 9 10 10 10 10 10 10 10 10 10 10 10 10 10 10 10 10 10 10 10 10 10 10 10
-6 -6 -6 -6 -8 -5 -1 0 1 1 2 3 5 7 8 9 9 10 10 10 10 10 10 11 11 10 10 10 10 9 10 10 10 10 10 10 10 10
-6 -5 -5 -5 -6 -6 -6 -4 -1 0 1 2 3 3 3 5 7 8 9 9 10 10 10 10 10 10 11 10 10 10 10 10 10 9 10 10 10 10
-6 -6 -5 -5 -5 -5 -5 -5 -5 -3 -0 0 0 1 2 3 4 5 5 7 8 9 9 10 10 10 10 10 10 10 9 10 9 10 9 10 10 10
-6 -6 -6 -6 -6 -5 -5 -5 -5 -5 -5 -2 -1 -0 0 1 2 3 3 3 4 5 7 8 8 9 9 9 10 9 9 9 9 9 9 9 9 9
-7 -7 -7 -6 -6 -6 -6 -5 -5 -5 -5 -4 -4 -3 -1 -0 0 1 1 2 2 2 3 4 5 6 7 7 8 8 8 9 9 9 9 9 9 9
-8 -7 -7 -7 -7 -6 -6 -6 -6 -6 -5 -5 -5 -4 -5 -4 -2 -1 -0 0 1 1 1 1 2 2 4 4 5 5 6 7 7 7 7 7 7 8
-8 -8 -7 -7 -7 -7 -6 -6 -6 -6 -6 -5 -5 -5 -5 -5 -4 -4 -3 -1 -0 0 0 0 0 1 2 2 3 3 4 5 5 6 5 6 6 6
-8 -8 -8 -7 -7 -7 -7 -6 -6 -6 -6 -6 -5 -5 -5 -5 -5 -5 -4 -4 -4 -2 -1 -0 -0 -0 0 1 1 1 2 3 3 3 3 4 4 5
-8 -8 -8 -7 -7 -7 -7 -7 -6 -6 -6 -6 -6 -5 -5 -5 -5 -5 -5 -5 -4 -4 -3 -2 -1 -1 -0 -0 -0 0 1 1 2 2 2 2 3 3

GFSNE_850_dewp_264.txt.gz
Dewpoint
7 8 6 6 10 10 8 7 7 8 9 10 10 9 8 10 10 8 -1 -8 -6 -5 -5 -5 -7 -8 -9 -10 -11 -11 -11 -11 -11 -11 -11 -11 -12 -12
8 7 5 4 7 9 10 8 8 7 6 8 10 9 8 9 10 7 -1 -6 -10 -8 -9 -9 -8 -8 -9 -9 -10 -10 -10 -10 -10 -10 -10 -10 -10 -10
7 7 5 5 5 6 8 9 8 7 6 4 7 9 10 10 9 4 4 -1 -7 -10 -9 -9 -9 -9 -9 -8 -9 -8 -8 -9 -9 -9 -9 -9 -9 -9
7 7 7 7 8 8 7 10 9 8 7 6 4 8 8 5 2 4 -3 -2 -4 -9 -10 -9 -9 -8 -8 -8 -6 -4 -4 -6 -7 -5 -5 -5 -7 -8
8 7 7 7 8 9 8 9 9 9 9 8 6 5 9 9 8 8 4 0 -0 -4 -8 -8 -8 -8 -6 -6 -5 -4 -3 -2 -2 -1 -1 -1 -1 -1
7 8 7 6 8 9 8 8 8 8 9 9 8 6 7 10 6 7 10 5 1 2 -2 -5 -5 -4 -5 -4 -3 -2 -1 0 1 1 1 2 2 2
7 8 8 7 7 9 9 7 6 9 10 10 9 8 8 10 10 6 7 5 0 4 4 1 -3 -2 -2 -1 -1 -2 -0 2 4 4 5 6 6 5
5 7 8 8 8 8 8 8 6 8 10 10 10 10 8 9 10 9 4 10 10 2 4 3 1 -1 -2 -3 -4 -1 3 5 5 6 5 6 6 7
-0 3 3 6 8 8 8 8 10 10 10 10 10 10 9 9 10 9 8 6 7 5 2 1 0 -2 -1 -2 -2 0 4 5 6 6 6 6 7 7
-2 -1 -0 1 5 8 8 8 9 10 10 10 10 10 10 9 9 9 8 7 6 8 5 5 3 0 -1 -1 1 2 4 5 6 4 3 4 7 7
-3 -2 -2 -0 1 5 7 9 9 10 10 10 11 11 11 10 10 10 10 10 10 8 8 8 7 3 3 1 -1 1 5 5 4 3 5 4 6 8
-3 -3 -3 -2 -0 1 4 7 8 8 8 10 11 11 11 11 10 10 10 10 10 10 8 7 7 7 6 4 4 4 3 4 5 5 6 6 5 8
-5 -4 -4 -4 -3 -1 0 2 4 5 7 8 9 10 10 11 11 10 10 10 10 11 10 8 7 8 7 7 6 6 6 6 7 7 8 8 4 7
-6 -5 -5 -5 -4 -3 -1 -0 1 2 4 6 8 8 9 9 10 10 10 10 10 10 10 10 10 9 8 8 8 8 8 9 9 8 8 8 9 8
-6 -5 -5 -5 -5 -4 -4 -2 -1 -0 1 3 4 6 7 7 8 9 10 10 10 10 10 10 10 10 10 10 9 9 9 10 10 9 10 9 9 9
-6 -6 -6 -5 -5 -5 -5 -5 -4 -2 -1 -0 1 1 2 4 5 6 8 8 9 9 9 10 10 10 10 10 10 10 10 10 10 10 10 10 9 9
-6 -6 -6 -6 -6 -6 -6 -5 -5 -5 -4 -2 -1 -1 -0 2 2 4 4 6 6 8 8 9 9 10 10 10 10 10 10 10 11 10 10 10 10 10
-7 -7 -7 -6 -6 -6 -6 -6 -6 -6 -5 -4 -4 -3 -2 -1 0 1 2 3 3 4 5 7 7 7 9 9 9 9 10 10 10 10 10 10 10 11
-7 -7 -7 -7 -7 -7 -6 -6 -6 -6 -6 -5 -5 -5 -5 -4 -2 -0 -0 0 1 2 2 3 4 4 5 6 7 7 8 8 8 9 9 10 10 10
-8 -8 -8 -8 -7 -7 -7 -7 -6 -7 -6 -6 -6 -5 -6 -5 -4 -4 -2 -1 -1 0 1 1 1 1 2 2 3 4 5 5 6 7 7 8 8 9
-9 -9 -8 -8 -8 -7 -7 -7 -7 -6 -6 -6 -6 -6 -6 -5 -5 -5 -4 -5 -4 -2 -1 -1 -0 0 0 1 1 1 2 3 3 4 5 5 6 6
-9 -9 -9 -9 -8 -8 -8 -7 -7 -7 -7 -6 -6 -6 -6 -6 -5 -5 -5 -5 -4 -4 -4 -4 -2 -1 -1 -0 -0 0 1 1 1 2 2 3 3 3
-10 -9 -9 -9 -9 -8 -8 -8 -8 -7 -7 -7 -7 -6 -6 -6 -6 -6 -6 -5 -5 -5 -5 -4 -4 -5 -3 -2 -2 -1 -1 -0 -0 0 1 1 1 1

GFSNE_850_dewp_270.txt.gz
Dewpoint
5 7 8 8 8 10 11 10 11 12 12 10 12 9 10 11 12 11 9 10 10 10 10 7 6 3 -1 -8 -10 -10 -11 -12 -11 -11 -10 -10 -10 -10
4 6 7 9 8 9 10 10 9 11 12 12 10 8 6 11 12 11 11 9 8 9 10 9 6 2 -2 -7 -9 -10 -10 -11 -11 -11 -11 -10 -10 -10
3 4 7 8 9 8 7 8 7 9 10 11 12 10 8 9 11 11 11 11 10 9 8 8 7 -0 -6 -8 -10 -11 -11 -11 -11 -11 -11 -10 -10 -10
2 3 6 7 9 9 9 8 6 8 8 9 10 12 10 9 11 10 10 11 10 9 8 7 4 -1 -7 -8 -9 -11 -12 -12 -12 -11 -11 -10 -10 -10
-1 2 5 6 7 9 8 6 6 7 9 8 9 10 12 9 9 11 11 11 11 9 9 8 6 0 -7 -7 -8 -10 -11 -11 -11 -11 -10 -10 -9 -9
-2 -0 3 5 6 8 8 6 8 8 8 7 7 8 9 12 10 9 12 11 11 12 10 8 6 3 -2 -7 -9 -9 -10 -10 -10 -9 -9 -8 -8 -8
-3 -2 -0 2 4 6 9 8 9 9 7 7 6 5 9 10 11 11 10 10 10 10 11 11 10 7 3 -3 -8 -9 -10 -10 -9 -8 -8 -8 -8 -7
-4 -3 -1 -1 2 5 7 8 9 8 8 7 5 6 8 9 10 10 10 10 12 10 10 10 10 6 1 -0 -8 -11 -11 -10 -9 -8 -7 -7 -7 -7
-5 -4 -3 -1 0 3 6 7 8 8 9 8 9 8 7 7 9 11 11 10 9 8 7 7 7 5 2 -1 -5 -7 -9 -10 -10 -9 -8 -7 -7 -6
-5 -5 -4 -3 -2 0 3 5 6 6 7 8 9 8 9 7 7 8 9 11 11 10 10 9 8 7 2 -2 -1 -2 -4 -6 -7 -8 -8 -7 -7 -6
-6 -5 -5 -4 -3 -1 1 3 5 6 7 8 7 8 8 9 8 9 9 9 11 11 11 11 10 9 8 4 -1 -2 -2 -2 -4 -5 -6 -6 -5 -4
-6 -6 -5 -5 -4 -2 -1 1 3 4 5 7 7 6 8 8 9 10 10 11 10 10 11 11 11 10 10 9 7 2 -2 -2 -2 -2 -2 -3 -2 -2
-6 -6 -6 -5 -5 -4 -2 -1 -0 1 3 5 6 7 7 7 8 8 9 8 9 11 10 10 11 10 11 10 9 8 5 1 -1 -1 -1 -1 -2 -1
-6 -6 -6 -5 -5 -5 -4 -2 -2 -1 0 3 5 6 8 8 8 8 8 9 8 9 11 11 11 10 10 10 10 9 8 6 5 2 0 0 1 1
-6 -6 -6 -6 -6 -5 -5 -4 -3 -2 -2 -0 1 2 4 5 7 8 8 8 8 8 10 11 11 10 10 10 10 10 10 9 8 7 5 4 2 1
-7 -7 -7 -6 -6 -6 -6 -5 -4 -4 -4 -4 -3 -1 -0 1 3 5 6 8 8 9 9 9 10 11 11 11 10 10 9 10 10 10 10 9 9 6
-8 -8 -8 -7 -7 -7 -6 -6 -6 -5 -5 -4 -4 -3 -2 -1 0 2 3 5 6 7 8 8 9 8 11 11 11 11 10 10 10 10 10 10 10 9
-8 -8 -8 -8 -8 -8 -7 -7 -7 -6 -6 -6 -5 -5 -4 -3 -2 -1 0 1 2 3 4 5 6 7 7 9 9 10 10 11 11 10 10 10 10 9
-9 -8 -8 -8 -8 -8 -8 -8 -7 -7 -7 -7 -6 -6 -5 -4 -4 -3 -2 -1 -0 0 1 2 3 4 5 5 5 6 7 7 8 10 10 10 10 10
-10 -10 -9 -9 -9 -9 -9 -8 -8 -8 -7 -7 -7 -6 -6 -5 -5 -4 -4 -3 -3 -2 -1 -0 0 1 1 1 2 3 3 5 5 6 7 7 7 8
-10 -10 -10 -10 -10 -10 -9 -9 -9 -8 -8 -7 -7 -7 -6 -6 -6 -5 -5 -5 -4 -4 -3 -2 -1 -0 -0 0 1 1 1 1 2 2 3 4 4 5
-11 -11 -10 -10 -10 -10 -10 -9 -9 -9 -8 -8 -7 -7 -7 -7 -7 -6 -6 -5 -5 -5 -4 -4 -3 -4 -3 -1 -1 -0 0 1 1 1 1 1 1 2
-12 -12 -11 -11 -10 -10 -10 -10 -10 -9 -9 -9 -8 -7 -7 -7 -7 -7 -6 -6 -6 -5 -5 -4 -4 -4 -3 -4 -4 -4 -4 -4 -2 -1 0 0 0 1

GFSNE_850_dewp_276.txt.gz
Dewpoint
-3 -2 -1 0 2 4 5 8 9 9 9 9 9 8 11 11 10 10 10 10 9 8 8 8 7 7 8 8 8 7 4 2 -4 -11 -12 -11 -11 -10
-4 -3 -1 0 1 4 5 7 9 9 8 8 8 10 8 11 10 10 10 11 11 9 9 8 6 7 7 7 7 7 6 3 -1 -7 -10 -10 -10 -10
-4 -3 -2 -1 1 3 5 5 8 8 8 7 7 11 11 8 11 10 10 11 11 10 9 8 10 9 9 8 7 6 6 5 -1 -4 -8 -10 -10 -10
-5 -4 -3 -2 0 2 4 5 7 9 8 8 7 10 12 11 10 10 10 10 10 10 11 10 9 9 9 9 7 6 6 6 0 -4 -5 -7 -10 -10
-5 -4 -4 -3 -1 1 3 4 6 8 8 9 8 8 8 11 11 11 11 10 11 10 11 10 10 10 10 10 9 8 6 4 2 -4 -6 -6 -7 -9
-5 -5 -4 -4 -3 -1 1 4 5 8 8 8 7 7 6 8 10 12 12 11 12 12 11 12 11 10 10 9 9 9 8 3 -0 -3 -6 -7 -7 -8
-5 -5 -5 -4 -3 -2 -0 2 4 6 7 8 8 7 6 7 8 10 12 11 11 12 12 11 11 11 10 10 9 9 9 7 2 -3 -7 -8 -8 -8
-5 -5 -5 -4 -4 -2 -1 1 3 5 6 7 8 7 7 5 6 8 10 12 11 11 12 11 11 10 10 10 9 8 8 7 6 3 -1 -5 -6 -7
-6 -6 -5 -5 -4 -3 -1 1 2 3 5 7 7 7 6 6 6 7 8 9 11 12 12 12 12 11 11 11 10 9 8 8 7 6 3 -1 -4 -6
-6 -6 -6 -5 -5 -4 -3 -0 1 2 4 5 6 8 7 7 7 6 8 6 8 12 12 12 11 11 11 11 10 10 9 7 7 7 6 4 1 -4
-7 -7 -6 -6 -5 -5 -4 -2 -1 1 2 4 5 7 7 8 8 8 8 8 6 8 10 11 11 10 11 11 10 9 8 7 6 6 6 4 3 2
-8 -8 -7 -6 -5 -5 -4 -4 -3 -1 1 3 4 5 6 7 7 8 9 8 7 5 6 9 11 11 11 10 9 8 8 8 8 8 7 5 4 6
-8 -7 -7 -6 -6 -5 -5 -4 -4 -2 -1 1 2 4 4 5 6 7 7 7 8 6 6 7 9 10 12 10 10 9 9 9 9 8 9 8 5 4
-8 -8 -7 -7 -6 -6 -6 -6 -5 -4 -3 -2 -0 2 3 4 4 5 6 6 7 8 9 9 9 9 10 11 11 11 10 10 10 9 9 9 9 8
-8 -8 -8 -8 -7 -7 -7 -6 -6 -6 -5 -4 -3 -2 -1 1 3 4 5 6 7 7 7 8 8 8 9 9 10 10 11 11 11 11 10 10 9 9
-9 -9 -8 -9 -9 -8 -8 -7 -7 -6 -6 -5 -5 -4 -3 -1 0 2 4 5 5 6 7 7 7 7 7 7 7 8 8 9 10 10 10 10 10 10
-10 -10 -10 -10 -9 -9 -9 -8 -8 -7 -7 -6 -6 -5 -4 -3 -2 -1 1 3 4 5 5 6 6 7 7 8 7 7 7 7 7 8 9 11 10 10
-11 -11 -11 -10 -10 -10 -9 -9 -8 -8 -7 -7 -7 -6 -6 -5 -4 -3 -2 -1 -0 1 2 3 5 6 6 7 7 7 7 6 6 7 9 9 9 9
-11 -11 -11 -11 -10 -10 -10 -9 -9 -8 -8 -8 -7 -7 -6 -6 -6 -5 -4 -3 -3 -2 -2 -0 1 3 3 4 5 6 7 7 8 8 8 8 9 9
-16 -13 -15 -11 -11 -11 -10 -10 -9 -9 -8 -8 -8 -7 -7 -7 -7 -6 -6 -5 -4 -4 -3 -2 -2 -1 0 1 2 3 3 5 6 6 7 8 9 9
-24 -22 -24 -20 -15 -13 -12 -11 -10 -9 -9 -8 -8 -8 -8 -7 -7 -7 -7 -6 -5 -5 -4 -4 -3 -3 -2 -1 -1 -0 0 1 3 3 2 4 5 6
-24 -24 -25 -26 -25 -21 -18 -16 -14 -11 -10 -9 -9 -8 -8 -8 -8 -7 -7 -7 -7 -6 -5 -5 -4 -4 -3 -3 -3 -2 -2 -2 0 0 1 1 2 3
-25 -25 -26 -27 -26 -26 -26 -24 -22 -19 -15 -11 -10 -9 -9 -8 -8 -8 -7 -7 -7 -7 -6 -6 -5 -5 -4 -4 -4 -4 -3 -3 -3 -2 -2 -1 -0 -0

GFSNE_850_dewp_279.txt.gz
Dewpoint
-4 -4 -3 -1 -0 1 2 3 4 5 10 9 9 9 8 10 10 10 11 10 10 9 7 6 6 7 8 8 8 8 7 5 0 -5 -12 -16 -16 -14
-5 -4 -4 -2 -1 -0 1 3 3 5 6 10 8 8 8 8 10 11 10 10 10 11 9 7 7 7 7 8 8 8 7 5 3 -1 -5 -10 -13 -12
-5 -5 -4 -3 -2 -0 1 3 4 5 6 9 9 9 7 9 10 9 9 10 10 11 11 9 7 7 7 8 8 8 8 6 5 2 -3 -5 -9 -11
-5 -5 -5 -4 -3 -2 0 2 3 4 5 8 8 8 8 9 10 10 10 9 10 10 11 11 9 8 8 8 8 9 8 8 6 5 1 -4 -7 -9
-6 -5 -5 -4 -4 -3 -1 1 3 4 6 7 8 8 7 8 11 12 10 11 9 9 10 11 11 9 9 7 9 9 9 8 8 6 4 -1 -6 -8
-5 -6 -5 -5 -4 -4 -2 0 2 4 5 7 8 8 8 7 8 8 12 11 11 10 9 10 11 10 9 9 10 10 10 9 9 7 5 3 -2 -6
-6 -6 -5 -5 -4 -3 -3 -1 1 3 5 6 8 8 8 9 8 8 10 11 10 10 9 9 10 10 10 10 10 11 11 10 9 8 6 4 2 -1
-7 -7 -6 -5 -5 -4 -3 -2 0 2 4 5 6 8 7 7 7 7 7 9 11 10 10 9 10 10 10 10 11 10 10 10 9 9 7 5 3 2
-7 -7 -7 -6 -5 -5 -3 -2 -1 0 2 4 5 7 7 8 8 7 6 7 9 11 11 11 10 10 10 10 11 10 10 10 9 9 9 8 6 5
-8 -8 -7 -7 -6 -5 -4 -3 -1 -0 1 3 4 6 7 7 8 8 7 6 7 10 11 11 10 10 11 11 10 10 11 9 9 9 9 8 7 7
-7 -7 -7 -7 -6 -5 -5 -4 -3 -1 -0 1 4 5 6 6 7 7 7 5 7 7 8 10 11 11 10 11 11 11 10 10 10 10 9 9 9 9
-8 -8 -7 -7 -6 -6 -5 -5 -4 -3 -1 1 3 4 4 6 7 8 7 6 7 7 8 8 10 10 12 11 11 11 11 11 11 11 11 10 10 10
-8 -8 -8 -7 -7 -7 -6 -6 -5 -3 -2 -1 0 2 3 5 5 6 7 7 8 8 7 7 7 8 11 11 10 10 11 11 11 10 10 9 9 9
-8 -8 -8 -8 -8 -7 -7 -6 -6 -5 -4 -3 -2 -1 1 3 4 5 6 6 7 7 8 9 9 7 7 10 11 10 10 10 10 9 9 9 9 9
-10 -10 -9 -9 -9 -8 -8 -7 -7 -6 -5 -5 -4 -3 -3 -1 1 3 4 5 5 6 7 6 8 9 9 10 9 11 11 11 10 10 10 10 10 10
-11 -10 -10 -10 -9 -9 -8 -8 -7 -7 -6 -6 -5 -4 -4 -2 -1 0 2 4 4 5 6 7 7 7 7 8 8 9 9 9 10 11 11 10 11 11
-11 -11 -11 -10 -10 -9 -9 -8 -8 -8 -7 -7 -6 -6 -5 -4 -4 -2 -1 0 2 3 5 5 6 6 7 6 7 7 6 6 7 8 9 9 9 9
-15 -13 -12 -11 -11 -10 -10 -9 -9 -8 -8 -8 -7 -7 -6 -6 -5 -4 -4 -3 -2 -1 -0 2 4 5 5 6 6 6 7 6 6 7 7 7 7 7
-27 -25 -19 -15 -14 -13 -12 -10 -9 -9 -8 -8 -8 -7 -7 -7 -6 -6 -5 -5 -4 -4 -3 -2 -0 2 3 3 4 5 6 6 6 7 7 7 7 6
-27 -27 -26 -24 -21 -19 -17 -14 -11 -10 -9 -9 -8 -8 -8 -7 -7 -7 -6 -6 -5 -5 -4 -4 -3 -2 -2 -1 1 2 3 4 5 6 6 7 7 7
-27 -27 -27 -27 -26 -26 -25 -23 -20 -15 -11 -10 -9 -8 -8 -8 -8 -7 -7 -7 -7 -6 -6 -5 -5 -4 -3 -2 -2 -2 -1 0 1 3 3 4 5 5
-28 -28 -28 -28 -28 -28 -27 -27 -27 -26 -22 -16 -11 -10 -9 -8 -8 -8 -7 -7 -7 -7 -6 -6 -5 -5 -4 -4 -3 -3 -2 -2 -1 -0 0 1 2 2
-28 -28 -28 -28 -29 -29 -29 -29 -28 -28 -28 -26 -22 -15 -11 -9 -8 -8 -8 -8 -7 -7 -7 -7 -6 -5 -5 -5 -5 -4 -4 -3 -3 -2 -2 -2 -1 -1

GFSNE_850_dewp_282.txt.gz
Dewpoint
-5 -4 -4 -4 -3 -1 -0 -0 1 4 6 10 9 10 10 11 11 11 10 10 11 10 9 8 8 8 8 8 9 9 7 6 1 -9 -18 -21 -22 -19
-5 -5 -4 -4 -3 -2 -1 0 1 2 4 7 9 9 8 8 9 10 10 10 9 10 11 10 7 7 9 9 9 9 8 7 6 1 -6 -13 -16 -19
-6 -5 -5 -5 -4 -3 -1 -0 1 2 3 5 7 9 9 9 8 9 9 10 10 10 11 11 10 8 7 9 9 9 9 8 8 6 1 -4 -9 -13
-6 -6 -5 -5 -4 -3 -2 -1 0 1 2 4 7 8 10 9 9 9 7 10 10 10 10 11 11 10 8 7 8 8 8 8 8 8 7 3 -1 -6
-6 -6 -6 -5 -5 -4 -3 -1 0 1 2 3 6 8 9 9 10 10 10 9 9 9 10 10 11 11 11 9 8 8 8 8 8 8 8 7 5 1
-7 -6 -6 -6 -5 -4 -3 -2 -1 1 3 3 5 7 8 8 9 8 7 7 12 9 8 9 10 11 11 11 9 8 8 9 8 8 8 8 8 6
-7 -7 -7 -6 -5 -4 -4 -3 -2 0 2 3 5 7 8 8 8 8 8 8 10 12 9 9 9 10 10 11 11 10 9 9 8 8 8 8 8 7
-7 -8 -7 -7 -6 -5 -4 -3 -2 -1 1 3 4 5 7 8 8 8 8 8 8 9 11 9 8 9 9 10 10 9 8 8 10 10 10 9 8 7
-8 -8 -7 -7 -6 -5 -4 -3 -2 -2 -1 2 3 4 6 7 8 7 7 8 8 7 9 10 11 10 9 9 10 9 8 8 9 10 10 10 9 8
-8 -8 -7 -7 -7 -6 -5 -3 -3 -2 -1 0 2 3 4 5 7 8 7 8 8 7 7 10 11 9 9 9 9 10 9 10 10 9 10 10 9 9
-8 -8 -8 -7 -7 -6 -6 -4 -3 -3 -2 -1 1 2 4 5 6 7 8 8 8 7 7 8 10 10 10 10 8 9 9 10 10 10 10 9 9 9
-8 -8 -8 -8 -7 -7 -6 -5 -5 -4 -3 -1 -0 1 2 3 5 6 7 7 7 7 7 7 6 8 11 9 10 10 9 9 10 11 10 10 9 10
-10 -9 -9 -8 -8 -7 -6 -6 -5 -4 -3 -2 -2 -0 1 3 4 5 6 7 7 7 7 7 6 7 9 11 9 9 10 10 10 10 11 11 10 10
-10 -10 -9 -9 -8 -8 -7 -7 -6 -5 -4 -3 -3 -2 -0 1 2 4 5 6 6 7 7 8 8 7 7 8 10 11 10 9 10 11 11 11 11 11
-10 -10 -10 -9 -9 -8 -8 -8 -7 -7 -6 -5 -5 -4 -3 -2 0 1 3 5 4 5 6 6 7 8 8 8 7 9 11 11 11 10 10 11 11 11
-12 -11 -11 -10 -9 -9 -8 -8 -8 -8 -7 -7 -6 -5 -4 -3 -2 -1 1 3 3 4 5 6 6 6 7 7 7 8 8 10 11 11 11 11 11 11
-21 -16 -14 -13 -12 -11 -9 -9 -8 -8 -8 -8 -7 -7 -6 -5 -4 -3 -2 -1 0 2 3 4 5 5 5 6 6 6 6 6 7 8 8 9 10 11
-31 -31 -25 -22 -18 -17 -14 -11 -9 -9 -8 -8 -8 -8 -7 -7 -6 -5 -4 -4 -3 -2 -1 1 3 4 4 5 5 6 6 6 6 6 7 7 7 8
-29 -29 -28 -28 -27 -25 -23 -19 -13 -11 -9 -9 -8 -8 -8 -8 -7 -7 -6 -6 -5 -4 -4 -3 -2 0 2 2 3 4 5 5 6 6 6 6 6 6
-29 -29 -29 -29 -28 -28 -27 -27 -25 -21 -14 -11 -9 -8 -8 -8 -8 -7 -7 -7 -7 -6 -5 -4 -4 -4 -3 -2 -1 -0 0 2 3 5 5 6 6 6
-29 -29 -29 -29 -30 -29 -29 -28 -28 -27 -25 -20 -13 -10 -9 -8 -8 -8 -7 -7 -7 -7 -6 -6 -5 -4 -4 -3 -3 -2 -2 -1 -1 1 2 3 4 5
-29 -29 -29 -29 -29 -29 -30 -29 -29 -29 -28 -28 -25 -20 -12 -9 -9 -8 -8 -8 -7 -7 -7 -6 -6 -5 -5 -4 -4 -4 -3 -3 -3 -2 -1 -1 0 1
-28 -28 -29 -29 -29 -29 -29 -30 -30 -29 -28 -28 -28 -27 -24 -16 -11 -9 -9 -8 -8 -8 -7 -7 -7 -7 -6 -5 -5 -5 -5 -5 -4 -3 -3 -3 -2 -1

GFSNE_850_dewp_285.txt.gz
Dewpoint
-5 -5 -5 -4 -3 -2 -1 -1 0 3 4 7 9 10 10 9 9 7 7 7 8 8 7 8 10 8 8 9 9 9 8 8 3 -8 -17 -21 -21 -20
-6 -5 -5 -5 -3 -3 -1 -0 0 1 2 5 9 10 10 10 10 8 9 7 8 9 8 8 9 9 8 8 9 9 9 8 8 5 -5 -17 -21 -20
-6 -6 -5 -5 -4 -3 -2 -1 0 0 1 3 4 7 10 10 9 11 9 7 8 10 8 8 9 9 8 8 9 9 9 9 8 8 6 0 -9 -16
-6 -6 -6 -5 -5 -4 -3 -2 -0 0 2 1 4 6 9 10 8 9 9 9 7 10 10 10 10 10 10 8 9 10 9 9 9 8 8 7 3 -2
-7 -6 -6 -6 -6 -4 -3 -3 -1 0 1 1 3 6 8 9 10 9 8 6 9 11 10 10 10 11 11 11 8 9 10 9 9 9 8 8 7 5
-7 -7 -7 -6 -6 -5 -4 -3 -2 -0 1 2 3 5 6 7 9 11 10 9 8 9 10 10 10 11 12 12 11 9 9 10 9 9 9 8 8 8
-8 -8 -7 -6 -5 -5 -4 -4 -2 -1 -0 2 3 5 5 7 8 9 10 9 10 9 9 10 10 11 11 11 11 11 11 9 9 10 9 9 8 8
-8 -8 -7 -7 -6 -5 -4 -4 -3 -2 -1 1 2 4 6 6 8 8 9 9 9 11 10 9 10 9 10 10 11 11 11 10 9 9 9 9 8 7
-8 -8 -7 -7 -7 -6 -4 -4 -3 -3 -2 -1 1 2 4 4 7 8 8 8 8 9 9 9 9 10 10 10 9 10 10 9 8 8 8 8 8 8
-8 -8 -8 -7 -7 -6 -5 -4 -4 -3 -2 -1 0 2 2 4 5 6 8 8 8 8 8 9 9 9 9 9 9 9 9 10 10 9 9 8 8 9
-9 -9 -8 -8 -7 -6 -6 -5 -4 -3 -3 -2 -0 1 2 2 5 5 7 8 7 7 8 8 8 8 10 10 9 9 10 9 10 10 9 8 9 10
-10 -9 -9 -8 -7 -7 -6 -6 -5 -4 -3 -2 -1 -0 1 2 3 4 6 7 8 8 8 8 8 8 8 9 10 10 10 10 10 10 10 10 10 11
-10 -9 -9 -8 -8 -8 -7 -6 -5 -4 -4 -3 -2 -1 0 1 2 3 5 6 7 7 7 7 7 7 8 7 10 10 9 9 10 9 10 10 11 11
-11 -10 -9 -9 -8 -8 -8 -7 -7 -6 -5 -4 -3 -2 -1 0 1 2 3 4 5 6 7 7 8 8 7 6 7 9 9 9 10 9 9 10 10 11
-13 -12 -11 -9 -9 -9 -8 -8 -8 -7 -7 -6 -5 -5 -4 -3 -1 0 2 2 3 5 5 6 7 7 8 7 6 7 8 11 10 10 10 10 11 11
-21 -18 -15 -14 -12 -10 -9 -9 -8 -8 -8 -7 -7 -6 -5 -4 -3 -2 -0 0 1 3 4 4 5 6 6 7 8 8 8 8 9 10 11 11 11 12
-30 -30 -30 -26 -22 -18 -14 -12 -10 -9 -8 -8 -8 -7 -7 -6 -5 -4 -3 -2 -1 -0 1 2 4 4 4 5 6 6 7 7 7 6 7 8 10 11
-29 -30 -30 -30 -30 -29 -28 -23 -16 -12 -10 -9 -8 -8 -8 -7 -7 -7 -6 -5 -4 -3 -2 -1 0 2 2 3 4 5 5 6 6 6 6 6 7 8
-30 -30 -30 -30 -30 -30 -29 -29 -28 -24 -15 -11 -9 -8 -8 -8 -8 -8 -7 -7 -6 -5 -4 -4 -3 -1 0 1 0 1 3 4 4 5 6 5 6 7
-29 -29 -29 -29 -29 -29 -29 -29 -29 -30 -28 -23 -14 -10 -9 -8 -8 -8 -8 -7 -7 -7 -6 -5 -4 -4 -3 -3 -2 -2 -1 0 2 3 3 5 5 6
-29 -29 -29 -29 -29 -28 -29 -29 -29 -29 -29 -29 -28 -22 -13 -10 -9 -9 -8 -8 -7 -7 -7 -7 -6 -5 -5 -4 -4 -3 -3 -2 -2 -1 0 1 3 4
-29 -29 -29 -29 -29 -29 -28 -28 -29 -29 -29 -29 -29 -29 -27 -20 -12 -10 -9 -9 -8 -8 -8 -7 -7 -7 -6 -5 -5 -5 -4 -4 -3 -3 -2 -2 -1 1
-28 -28 -29 -29 -28 -28 -28 -28 -28 -28 -28 -28 -28 -28 -28 -28 -25 -18 -12 -10 -10 -9 -9 -8 -8 -7 -7 -6 -6 -5 -6 -6 -5 -4 -4 -3 -3 -2